Accueil
METAR-TAF:

METAR-TAF

Aéroports :

McKinley Park, Alaska, États-Unis

latitude: 63-44N, longitude: 148-55W, altitude: 524 m

Observation

Le bulletin a été fait il y a 16 minutes, à 22:56 UTC
Vent 9 kt de nord
Température 14°C
Humidité 31%
Pression 1002 hPa
Visibilité: 16.1 km
Nuages fragmentés à une hauteur de 6500 ft
Nuages fragmentés à une hauteur de 10000 ft

METAR: PAIN 262256Z AUTO 36009KT 10SM BKN065 BKN100 14/M03 A2958 RMK AO2 SLP036 T01391028

Heure: 15:12 (23:12 UTC)


TAF: absent

Observations et prévisions météorologiques de plus de 4000 aéroports (messages METAR et TAF).

Les stations disponibles sont représentées par des disques jaunes et rouges sur la carte.

Passer la souris dessus pour voir le nom de la station.

Cliquer dessus pour voir les observations et prévisions météorologiques.

Pour changer de carte: cliquez sur les boutons verts avec une croix noire pour zoomer, sur le bouton vert avec un tiret pour effectuer un zoom arrière, ou sur les flèches vertes pour les cartes adjacentes.


METAR-TAF: